User: anonymous   Login
Location: Unspecified
(0.0000°N, 0.0000°E)
Time: 03:00:30
(UTC+00:00)
Language:

STSS DEMO 2 (USA 209) - Orbit

View from above orbital plane
View from above orbital plane
View from above satellite
View from above satellite

Ground track
Ground track

The orbit data is extracted from the following two-line orbital elements,

1 35938U 09052B   17310.14202044 0.00000010  00000-0  44232-4 0    06
2 35938  57.9883   0.0795 0015794 105.9767 254.0233 12.79331825    02
Epoch (UTC): 06 November 2017 03:24:30
Eccentricity: 0.0015794
inclination: 57.9883°
perigee height: 1332 km
apogee height: 1356 km
right ascension of ascending node: 0.0795°
argument of perigee: 105.9767°
revolutions per day: 12.79331825
mean anomaly at epoch: 254.0233°
orbit number at epoch: 0

The dashed part of the orbit path shows where the satellite is in the earth's shadow,  

DLR